Location: ???????
(55.4362°N, 38.1183°E)
Time: 18:13:32
(UTC+00:00)

Cosmos 1825 - Pass Details

Date: 17 June 2021
Orbit: 500 x 506 km, 82.5° (Epoch: 29 July)

Event Time Altitude Azimuth Distance (km) Brightness Sun altitude
Exits shadow 23:15:03 11° 204° (SSW) 1,685 4.1 -8.0°
Maximum altitude 23:18:42 60° 285° (WNW) 589 2.4 -7.7°
Drops below altitude 10° 23:22:28 10° 6° (N) 1,734 6.2 -7.5°
Sets 23:24:37 0° 10° (N) 2,623 7.5 -7.4°
